スペースウォッチ彗星

C/2011 KP36 ( Spacewatch )

English version
Home page
Updated on May 23, 2019

---------------------------------------------------------------------

・ プロフィール

発見日 2011年5月21日
発見光度 20.4等
発見者 T. H. Bressi (Kitt Peak)

・ 写真集

・ 軌道要素

Epoch 2016 May 12.0 TT = JDT 2457520.5
T 2016 May 26.89706 TT                                  MPCW
q   4.8833086            (2000.0)            P               Q
z  +0.0260345      Peri.  180.59782     +0.99445338     +0.09830705
 +/-0.0000000      Node   173.40039     -0.09509868     +0.99227937
e   0.8728655      Incl.   18.98677     -0.04493022     +0.07561335
From 3466 observations 2011 May 21-2019 Mar. 1, mean residual 0".4.

・ 星図

・ 光度変化

        m1 = 4.0 + 5 logΔ + 10.0 log r  [ ,0]  (              〜2016年 5月26日)
        m1 = 2.0 + 5 logΔ + 13.0 log r  [0, ]  (2016年 5月26日〜              )

---------------------------------------------------------------------

軌道要素はM.P.E.C. 2019-J142に掲載されたものです。
星図はステラナビゲータ Ver.8 (アストロアーツ) で作成したものです。
光度グラフはComet for Windowsで作成したものです。

---------------------------------------------------------------------

Copyright(C) Seiichi Yoshida (comet@aerith.net). All rights reserved.